• MPC Preparation (Info)

  • MPEC 2015-V119: 2014 QO296

    The following Minor Planet Electronic Circular may be linked-to from your own Web pages, but must not otherwise be redistributed electronically.

    A form allowing access to any MPEC is at the bottom of this page.


    Read MPEC 2015-V118 Read MPEC 2015-V120


    M.P.E.C. 2015-V119                               Issued 2015 Nov. 11, 03:41 UT
    
         The Minor Planet Electronic Circulars contain information on unusual
             minor planets and routine data on comets.  They are published
        on behalf of Division F of the International Astronomical Union by the
              Minor Planet Center, Smithsonian Astrophysical Observatory,
                              Cambridge, MA 02138, U.S.A.
    
                 Prepared using the Tamkin Foundation Computer Network
    
                                  MPC@CFA.HARVARD.EDU
                URL https://www.minorplanetcenter.net/    ISSN 1523-6714
    
                                      2014 QO296
    
                               Revision to MPEC 2014-Q77
    
    Additional Observations:
         K14QT6O 2C2015 11 03.50856504 02 29.455+09 34 48.05         23.4 RtEV119568
         K14QT6O 2C2015 11 06.46285503 59 11.500+09 12 35.54         23.4 RtEV119568
         K14QT6O 2C2015 11 06.47450303 59 10.676+09 12 30.32         23.2 RtEV119568
    
    Observer details:
    568 Mauna Kea.  Observers Y. Ramanjooloo, D. Hung, D. J. Tholen.  Measurer
        D. J. Tholen.  2.24-m University of Hawaii reflector.
    
    First and last observations above in comparison with prediction:
    Residuals in seconds of arc, reference and Delta-T
    151103 568 59.7+  4.8+    151106 568 60.1+  4.7+    MPO322335   -0.14 day
    
    Orbital elements:
    2014 QO296                                          PHA, Earth MOID = 0.0143 AU
    Epoch 2016 Jan. 13.0 TT = JDT 2457400.5                 MPC
    M 230.95495              (2000.0)            P               Q
    n   0.39643902     Peri.   30.59735     -0.71963519     +0.69292745
    a   1.8352073      Node   193.55671     -0.66927061     -0.70927130
    e   0.4689218      Incl.   10.93364     -0.18493794     -0.12955989
    P   2.49           H   20.2           G   0.15           U   2
    Residuals in seconds of arc
    140820 F51  0.0   0.2+    140830 291  0.4+  0.3+    140903 568  0.1-  0.1-
    140820 F51  0.4+  0.2-    140830 291  0.1-  0.1+    140904 568  0.1-  0.0
    140820 F51  0.3+  0.2-    140830 291  0.1+  0.0     140904 568  0.0   0.0
    140821 568  0.2+  0.1+    140901 291  0.1+  0.4+    140904 568  0.0   0.0
    140821 568  0.2+  0.0     140901 291  0.4+  0.8+    140916 568  0.1+  0.0
    140821 568  0.2+  0.0     140901 291  0.3+  0.8+    140916 568  0.2+  0.0
    140827 J04  0.1+  0.2-    140902 291  0.2+  0.3+    140916 568  0.0   0.0
    140827 J04  0.6-  0.0     140902 291  0.3+  0.3+    140919 568  0.0   0.0
    140828 493  0.3+  0.2+    140902 291  0.0   0.2+    140919 568  0.0   0.0
    140828 493  0.4+  0.3+    140903 568  0.1-  0.1-    140919 568  0.0   0.0
    140828 493  0.2+  0.4+    140903 568  0.0   0.1+    141021 568  0.0   0.1+
    140828 493  0.4+  0.2-    140903 568  0.1+  0.0     141021 568  0.0   0.0
    140828 493  0.0   0.1+    140903 568  0.0   0.1-    151103 568  0.0   0.0
    140829 568  0.1-  0.0     140903 568  0.0   0.0     151106 568  0.0   0.0
    140829 568  0.1-  0.0     140903 568  0.1-  0.1-    151106 568  0.0   0.0
    
    Ephemeris:
    2014 QO296               a,e,i = 1.84, 0.47, 11                  q = 0.9746
    Date    TT    R. A. (2000) Decl.     Delta      r     Elong.  Phase     V
    2015 10 12    04 20 28.7 +12 14 49   1.9104  2.6837   132.1    16.0    24.6
    ...
    2015 10 27    04 10 01.1 +10 30 52   1.7704  2.6714   148.9    11.1    24.3
    ...
    2015 11 04    04 01 57.3 +09 31 07   1.7177  2.6630   157.9     8.1    24.1
    ...
    2015 11 10    03 55 02.3 +08 46 13   1.6899  2.6559   164.0     5.9    23.9
    2015 11 11    03 53 49.8 +08 38 50   1.6863  2.6547   164.8     5.6    23.9
    2015 11 12    03 52 36.6 +08 31 29   1.6830  2.6534   165.6     5.3    23.9
    ...
    2015 11 18    03 45 05.7 +07 48 44   1.6698  2.6454   168.3     4.4    23.8
    ...
    2015 11 26    03 34 56.3 +06 57 03   1.6696  2.6337   164.4     5.8    23.9
    ...
    2015 12 11    03 17 34.7 +05 45 35   1.7202  2.6083   148.0    11.5    24.2
    
    A. U. Tomatic                (C) Copyright 2015 MPC           M.P.E.C. 2015-V119
    

    Read MPEC 2015-V118 Read MPEC 2015-V120


    MPEC number:

    Enter an MPEC number in one of the following forms:

    • 1997-B01 (the full form)
    • J97B01 (the packed version of the full form)
    • B01 (the abbreviated form)